Startseite
Über Mich
AHP4
Galerie
Sehschlangen
Tourenbuch
Bookmarks
Elektronik
Bewertung
Geschichten
[Tagesmessung] [Jahreswerte] [Information]

Messwerte vom 30.11.2021

Die letzten Messwerte von 23:58:49 Uhr:
KategorieMesswert
Temperatur [°C]4
Luftdruck [mBar]988
Sonneneinstrahlung0
Wind [km/h]2 aus Südost
Niederschlag [l/m²]0
rel.Luftfeucht.96.6%
CO2 [ppm]578

Diagramme
Messwerte vom 30.11.2021
Tagesaggregation
KategorieMinimumMaximumSchnittSumme
Temperatur [°C]073.6292
Luftdruck [mBar]980992985.3271
Sonneneinstrahlung22352.8646
Wind [km/h]33
rF [%]94.296.696.49
Niederschlag [l/m²]2.06
CO2 [ppm]425764657.6
Einordnung alsKalter Tag

Messungen an benachbarten Tagen: Zur Jahresaggregation 2021
Tabelle aller Messwerte
UhrzeitTemperatur [°C]Luftdruck [mBar]SonneWind [km/h]RichtungRegen [l/m²]rF [%]CO2 [ppm]
00:01:46 1 991 0 4 S 0 96.6 690
00:04:47 1 991 0 1 W 0 96.6 684
00:07:45 1 991 0 0 W 0 96.6 685
00:10:46 1 991 0 3 O 0 96.6 693
00:13:46 1 991 0 1 S 0 96.6 698
00:16:46 1 991 0 2 SO 0 96.6 691
00:19:47 1 991 0 9 SW 0 96.6 698
00:22:47 1 991 0 2 SO 0 96.6 700
00:25:47 1 992 0 3 SW 0 96.6 697
00:28:47 1 991 0 1 S 0 96.6 702
00:31:48 1 991 0 2 SW 0 96.6 697
00:34:47 1 991 0 2 SO 0 96.6 693
00:37:48 1 991 0 0 S 0 96.6 687
00:40:47 1 991 0 3 SO 0 96.6 689
00:43:47 0 991 0 1 SW 0 96.6 694
00:46:46 0 991 0 2 SW 0 96.6 691
00:49:47 0 991 0 0 SO 0 96.6 693
00:52:47 0 991 0 2 S 0 96.6 696
00:55:46 0 991 0 2 SO 0 96.6 700
00:58:44 0 991 0 1 O 0 96.6 702
01:01:45 0 991 0 0 S 0 96.6 697
01:04:47 0 991 0 3 S 0 96.6 691
01:07:45 0 991 0 4 S 0 96.6 687
01:10:46 0 991 0 2 S 0 96.6 694
01:13:47 0 991 0 2 SO 0 96.6 696
01:16:44 0 991 0 0 S 0 96.6 708
01:19:45 0 991 0 1 S 0 96.6 705
01:22:46 0 991 0 3 O 0 96.6 705
01:25:46 0 991 0 6 SO 0 96.6 706
01:28:46 0 991 0 0 S 0 96.6 700
01:31:45 0 991 0 6 S 0 96.6 693
01:34:44 0 991 0 2 S 0 96.6 696
01:37:47 1 991 0 2 SW 0 96.6 699
01:40:46 1 991 0 1 S 0 96.6 702
01:43:46 1 991 0 1 S 0 96.6 700
01:46:47 1 991 0 1 S 0 96.6 694
01:49:48 1 991 0 2 S 0 96.6 690
01:52:48 1 991 0 1 SW 0 96.6 688
01:55:47 1 991 0 1 S 0 96.6 687
01:58:46 1 991 0 2 SO 0 96.6 695
02:01:46 1 991 0 4 SW 0 96.6 696
02:04:48 1 990 0 3 SW 0 96.6 695
02:07:46 1 991 0 2 SO 0 96.6 695
02:10:47 1 991 0 3 SW 0 96.6 702
02:13:44 1 991 0 5 S 0 96.6 703
02:16:45 1 991 0 6 S 0 96.6 711
02:19:49 1 991 0 4 SW 0 96.6 706
02:22:47 1 991 0 3 W 0 96.6 709
02:25:45 1 990 0 3 SO 0 96.6 706
02:28:48 1 991 0 0 W 0 96.6 703
02:31:46 1 991 0 6 NO 0 96.6 700
02:34:46 1 990 0 1 SW 0 96.6 700
02:37:48 2 990 0 6 SW 0 96.6 708
02:40:48 2 991 0 2 SO 0 96.6 700
02:43:46 2 990 0 4 W 0 96.6 699
02:46:44 2 990 0 9 O 0 96.6 692
02:49:49 2 990 0 5 SO 0 96.6 706
02:52:46 2 990 0 9 S 0 96.6 709
02:55:44 2 990 0 4 S 0 96.6 704
02:58:45 2 990 0 7 S 0 96.6 706
03:01:47 2 990 0 4 SO 0 96.6 710
03:04:48 2 990 0 5 S 0 96.6 703
03:07:47 2 990 0 2 SO 0 96.6 703
03:10:48 2 989 0 3 SO 0 96.6 701
03:13:46 2 990 0 4 S 0 96.6 705
03:16:46 2 989 0 4 SW 0 96.6 705
03:19:49 2 989 0 5 SO 0 96.6 711
03:22:45 2 990 0 2 S 0 96.6 711
03:25:45 2 989 0 3 S 0 96.6 717
03:28:47 2 989 0 5 S 0 96.6 717
03:31:46 2 989 0 6 SO 0 96.6 715
03:34:46 2 989 0 2 SO 0 96.6 718
03:37:47 2 989 0 6 SW 0 96.6 714
03:40:47 2 988 0 5 SW 0 96.6 714
03:43:47 2 988 0 5 S 0 96.6 720
03:46:45 2 988 0 8 S 0 96.6 718
03:49:49 2 989 0 12 NW 0 96.6 718
03:52:47 2 988 0 2 W 0 96.6 718
03:55:45 2 988 0 8 S 0 96.6 715
03:58:46 2 988 0 4 S 0 96.6 717
04:01:48 2 989 0 6 SW 0 96.6 718
04:04:45 2 988 0 3 SW 0 96.6 721
04:07:48 2 987 0 6 S 0 96.6 723
04:10:46 2 987 0 5 SW 0 96.6 708
04:13:48 2 988 0 4 SO 0 96.6 711
04:16:49 2 988 0 7 SO 0 96.6 714
04:19:47 2 988 0 4 S 0 96.6 723
04:22:47 2 987 0 9 S 0 96.6 723
04:25:47 2 987 0 6 SO 0 96.6 726
04:28:46 2 987 0 8 NO 0.2575 96.6 723
04:31:46 2 987 0 5 NW 0 96.6 725
04:34:45 2 987 0 2 O 0 96.6 720
04:37:46 2 987 0 2 S 0 96.6 720
04:40:47 2 987 0 4 W 0 96.6 723
04:43:46 2 987 0 5 S 0 96.6 721
04:46:46 2 987 0 3 S 0 96.6 718
04:49:44 2 987 0 8 S 0 96.6 717
04:52:47 2 987 0 7 O 0 96.6 715
04:55:47 2 987 0 3 S 0 96.6 718
04:58:43 2 987 0 8 W 0 96.6 717
05:01:47 2 987 0 18 O 0 96.6 718
05:04:50 2 987 0 7 SW 0 96.6 720
05:07:47 2 987 0 5 SO 0 96.6 729
05:10:47 2 987 0 8 NW 0 96.6 715
05:13:46 2 987 0 2 SO 0.2575 96.6 717
05:16:46 2 987 0 11 S 0 96.6 719
05:19:45 2 987 0 6 SO 0 96.6 718
05:22:46 2 987 0 8 S 0 96.6 711
05:25:46 2 987 0 6 SW 0 96.6 716
05:28:48 2 987 0 3 S 0 96.6 724
05:31:45 2 987 0 11 S 0 96.6 723
05:34:46 2 987 0 13 S 0 96.6 723
05:37:47 2 987 0 7 SW 0 96.6 717
05:40:45 2 987 0 4 O 0.2575 96.6 720
05:43:45 2 987 0 5 W 0 96.6 715
05:46:46 2 985 0 6 NO 0 96.6 713
05:49:48 2 986 0 10 S 0 96.6 720
05:52:45 2 986 0 10 W 0 96.6 716
05:55:47 2 985 0 3 SW 0 96.6 718
05:58:46 2 985 0 7 SW 0 96.6 718
06:01:47 2 985 0 12 SO 0 96.6 721
06:04:46 2 984 0 4 SW 0 96.6 725
06:07:47 2 985 0 2 SO 0 96.6 724
06:10:47 2 984 0 8 SW 0 96.6 718
06:13:47 2 985 0 11 W 0 96.6 718
06:16:48 2 984 0 6 SW 0 96.6 718
06:19:47 2 984 0 4 NW 0 96.6 725
06:22:47 2 984 0 10 W 0 96.6 721
06:25:49 2 984 0 6 SO 0 96.6 715
06:28:46 2 984 0 3 S 0.2575 96.6 714
06:31:48 2 984 0 10 SW 0 96.6 709
06:34:45 2 984 0 4 SW 0 96.6 709
06:37:46 2 984 0 4 S 0 96.6 715
06:40:46 2 984 0 9 SW 0 96.6 732
06:43:46 2 984 0 33 W 0 96.6 713
06:46:47 2 984 0 6 SO 0 96.6 709
06:49:46 2 984 0 3 SW 0 96.6 703
06:52:44 2 984 0 10 S 0 96.6 708
06:55:46 2 984 0 7 S 0 96.6 703
06:58:46 2 984 0 8 SW 0 96.6 706
07:01:46 2 984 0 5 SW 0 96.6 708
07:04:47 2 984 0 5 S 0 96.6 703
07:07:50 2 984 0 8 SO 0 96.6 701
07:10:45 2 983 0 7 S 0 96.6 694
07:13:46 2 984 0 7 SW 0 96.6 702
07:16:49 2 983 0 14 NO 0 96.6 700
07:19:46 2 984 0 8 SW 0 96.6 697
07:22:47 2 983 0 10 SO 0 96.6 691
07:25:46 2 984 0 13 S 0 96.6 700
07:28:47 2 983 0 4 SW 0 96.6 711
07:31:47 2 984 0 14 SW 0 96.6 720
07:34:47 2 983 0 10 S 0 96.6 725
07:37:46 2 984 0 6 NO 0 96.6 736
07:40:46 2 984 0 5 SW 0 96.6 740
07:43:45 2 983 3 5 SW 0 96.6 739
07:46:48 2 983 5 3 SW 0 96.6 733
07:49:46 2 983 7 5 NO 0 96.6 730
07:52:47 2 983 9 3 SW 0 96.6 741
07:55:46 2 983 14 6 O 0 96.6 748
07:58:45 2 983 11 6 S 0 96.6 751
08:01:47 2 983 14 7 SW 0 96.6 753
08:04:47 2 983 14 12 NW 0 96.6 744
08:07:49 2 982 16 5 SW 0 96.6 746
08:10:48 2 983 17 3 NO 0 96.6 731
08:13:49 2 983 38 11 W 0 96.6 740
08:16:48 2 983 32 10 O 0 96.6 734
08:19:49 2 983 28 3 NW 0 96.6 738
08:22:46 2 983 40 11 S 0 96.6 735
08:25:45 2 984 44 2 S 0 96.6 735
08:28:47 2 983 45 6 SO 0 96.6 741
08:31:46 2 983 71 5 S 0 96.6 746
08:34:49 3 983 62 10 SW 0 96.6 743
08:37:47 3 983 68 3 SW 0 96.6 743
08:40:46 3 983 75 3 SW 0 96.6 740
08:43:50 3 983 69 23 SO 0 96.6 741
08:46:47 3 982 71 4 NO 0 96.6 746
08:49:46 3 982 77 2 S 0 96.6 746
08:52:46 3 982 74 6 W 0 96.6 749
08:55:48 3 982 98 6 S 0 96.6 746
08:58:47 3 981 96 12 W 0 96.6 740
09:01:49 3 983 83 6 S 0 96.6 744
09:04:47 3 983 94 6 SO 0 96.6 746
09:07:48 3 982 112 5 SO 0 96.6 743
09:10:45 3 982 114 9 O 0 96.6 750
09:13:47 3 982 106 3 W 0 96.6 758
09:16:46 3 982 116 4 S 0 96.6 764
09:19:49 4 982 133 7 0 96.6 761
09:22:48 4 981 99 28 W 0 96.6 764
09:25:49 4 983 119 4 SW 0 96.6 757
09:28:49 4 982 108 8 SW 0 96.6 755
09:31:49 4 981 106 14 NW 0 96.6 747
09:34:48 4 982 114 3 W 0 96.6 753
09:37:47 4 981 131 2 S 0 96.6 749
09:40:51 4 981 122 8 NO 0 96.6 762
09:43:49 4 982 134 7 NW 0 96.6 762
09:46:47 4 982 137 14 SO 0 96.6 761
09:49:49 4 981 163 9 SO 0 96.6 755
09:52:48 4 982 161 13 NO 0 96.6 751
09:55:45 4 981 156 5 W 0 96.6 753
09:58:49 4 981 151 8 SO 0 96.6 754
10:01:48 4 982 146 5 W 0 96.6 759
10:04:47 4 981 168 8 NW 0 96.6 756
10:07:49 4 982 160 4 S 0 96.6 750
10:10:46 4 981 136 7 S 0 96.6 750
10:13:48 4 982 113 22 NW 0 96.6 752
10:16:47 4 981 138 4 SO 0 96.6 758
10:19:46 4 982 139 4 SW 0 96.6 756
10:22:49 4 983 150 9 SW 0 96.6 759
10:25:48 4 982 152 11 W 0 96.6 746
10:28:48 4 982 138 10 SW 0 96.6 737
10:31:48 4 981 157 13 SW 0 96.6 747
10:34:45 4 981 155 6 NW 0 96.6 740
10:37:48 4 982 160 11 W 0 96.6 738
10:40:47 5 982 170 6 W 0 96.6 731
10:43:48 5 982 178 12 W 0 96.6 732
10:46:49 5 982 192 16 NW 0 96.6 738
10:49:48 5 981 192 8 SW 0 96.6 737
10:52:49 5 981 186 6 SW 0 96.6 739
10:55:46 5 981 172 8 O 0 96.6 740
10:58:46 5 981 179 10 W 0 96.6 732
11:01:47 5 982 173 13 NO 0 96.6 735
11:04:47 5 981 150 20 W 0.2575 96.6 729
11:07:45 5 982 134 10 N 0 96.6 731
11:10:47 5 981 145 7 SO 0 96.6 738
11:13:49 5 982 146 11 SW 0 96.6 732
11:16:47 5 981 157 11 W 0 96.6 727
11:19:48 5 981 150 8 SW 0 96.6 667
11:22:45 5 982 155 11 W 0 96.6 653
11:25:47 5 982 170 16 N 0 96.6 687
11:28:46 5 981 198 4 O 0 96.6 697
11:31:48 5 982 184 13 NW 0 96.6 705
11:34:48 5 981 162 11 W 0 96.6 709
11:37:49 5 980 173 12 NW 0 96.6 708
11:40:48 5 981 179 7 NW 0 96.6 709
11:43:47 6 981 201 11 W 0 96.6 705
11:46:47 6 981 192 19 W 0 96.6 702
11:49:47 6 981 188 24 SW 0 96.6 709
11:52:46 6 982 178 17 W 0 96.6 705
11:55:46 6 981 165 9 SW 0 96.6 705
11:58:45 6 981 195 17 N 0 96.6 702
12:01:50 6 981 183 15 NW 0 96.6 708
12:04:48 6 980 187 16 SO 0 96.6 714
12:07:49 6 981 195 7 W 0 96.6 711
12:10:50 6 981 205 21 NW 0 96.6 700
12:13:47 6 980 194 20 W 0 96.6 697
12:16:49 6 980 204 13 NW 0 96.6 691
12:19:49 7 980 204 18 SW 0 96.6 683
12:22:49 7 981 209 20 W 0 96.6 687
12:25:50 7 981 205 10 SW 0 96.6 685
12:28:49 7 981 206 20 SW 0 96.6 694
12:31:48 7 980 193 10 NW 0 96.6 691
12:34:49 7 980 198 21 NW 0 96.6 691
12:37:49 7 981 210 13 NW 0 96.6 690
12:40:48 7 981 203 18 W 0 96.6 694
12:43:48 7 981 213 16 W 0 96.6 697
12:46:47 7 981 216 8 W 0 96.6 695
12:49:49 7 981 216 21 NW 0 96.6 697
12:52:49 7 981 216 11 NW 0 96.6 697
12:55:48 7 981 219 25 SW 0 96.6 700
12:58:49 7 980 209 17 NW 0 96.6 693
13:01:47 7 980 185 17 W 0 96.6 698
13:04:46 7 981 196 12 SW 0 96.6 704
13:07:47 7 981 179 16 SW 0 96.6 697
13:10:47 7 981 154 14 NW 0 96.6 700
13:13:47 7 981 158 8 NO 0 96.6 703
13:16:46 6 981 163 18 W 0 96.6 697
13:19:49 6 982 172 29 NO 0 96.6 679
13:22:46 6 981 182 24 W 0 96.6 669
13:25:49 6 982 198 13 NW 0 96.6 659
13:28:49 6 981 206 13 NW 0 96.6 656
13:31:48 6 981 213 8 SW 0 96.6 664
13:34:46 6 981 217 11 NW 0 96.6 673
13:37:48 6 981 214 9 W 0 96.6 665
13:40:46 6 982 215 24 W 0 96.6 669
13:43:48 6 981 213 25 W 0 96.6 667
13:46:47 6 981 217 21 W 0 96.6 670
13:49:46 6 981 216 14 W 0 96.6 661
13:52:49 6 981 207 13 SW 0 96.6 652
13:55:47 6 981 198 19 SW 0 96.6 650
13:58:46 6 981 201 10 W 0 96.6 656
14:01:49 6 981 215 20 W 0 96.6 653
14:04:46 6 982 217 14 W 0 96.4 653
14:07:49 6 982 201 6 W 0 96.1 661
14:10:49 6 982 190 7 NO 0 96.6 661
14:13:48 6 982 190 14 NW 0 96.1 664
14:16:48 6 982 188 14 SW 0 95 659
14:19:47 6 982 197 8 NW 0 94.8 668
14:22:52 6 983 193 10 SW 0 95.2 673
14:25:50 6 982 192 9 NW 0 95.2 671
14:28:46 6 982 196 11 W 0 95.1 668
14:31:48 6 982 209 10 SW 0 95.2 670
14:34:48 6 982 213 12 NW 0 96.1 679
14:37:47 6 982 212 11 W 0 96.4 679
14:40:49 6 983 223 5 SW 0 96.6 677
14:43:47 6 982 203 15 O 0 96.6 671
14:46:49 6 982 202 13 NW 0 96.6 668
14:49:46 6 982 199 17 W 0 96.6 670
14:52:47 6 983 191 9 N 0 96.5 664
14:55:49 6 982 190 16 NW 0 96.2 673
14:58:45 6 983 195 18 W 0 96 673
15:01:46 6 982 195 9 W 0 95.4 667
15:04:48 6 983 193 9 NW 0 95 668
15:07:47 6 983 184 10 W 0 95.4 661
15:10:49 6 982 156 11 SO 0 95 672
15:13:48 6 983 163 13 NW 0 94.7 673
15:16:49 6 983 160 25 W 0 95.2 675
15:19:48 6 983 132 25 W 0 95 667
15:22:45 6 983 115 18 0 94.6 665
15:25:49 5 983 140 24 NW 0 95.1 664
15:28:48 5 983 114 7 W 0 95.2 661
15:31:49 5 983 90 15 NW 0 96.2 656
15:34:49 5 984 82 12 SW 0 96.6 667
15:37:47 5 983 126 11 W 0.2575 96.6 664
15:40:45 5 984 157 15 S 0 96.6 657
15:43:50 5 984 163 18 W 0 96.6 652
15:46:46 5 984 106 4 SW 0 96.6 661
15:49:48 5 984 112 4 W 0 96.6 661
15:52:48 5 984 122 8 N 0 96.6 664
15:55:45 5 984 117 9 W 0 96.6 659
15:58:47 5 983 84 9 SW 0 96.6 667
16:01:48 5 984 71 12 SW 0 96.6 667
16:04:46 5 984 63 16 W 0 96.6 670
16:07:48 5 984 60 8 W 0 96.6 669
16:10:46 5 984 58 22 W 0 96.6 673
16:13:48 5 984 57 13 W 0 96.6 660
16:16:50 5 984 45 15 S 0 96.6 656
16:19:48 5 984 31 11 NW 0 96.6 645
16:22:47 5 984 33 13 SW 0 96.6 660
16:25:50 5 984 29 14 W 0 96.6 656
16:28:47 5 984 21 11 W 0 96.6 655
16:31:47 5 984 14 13 W 0 96.6 647
16:34:50 5 984 3 23 SW 0 96.6 650
16:37:46 5 984 13 7 SW 0 96.6 442
16:40:48 5 984 10 4 SO 0 96.6 425
16:43:47 5 984 10 7 SW 0 96.6 486
16:46:46 5 984 8 7 SW 0 96.6 488
16:49:46 5 984 0 17 S 0 96.6 466
16:52:46 5 984 0 6 S 0 96.6 480
16:55:48 5 984 0 8 SW 0 96.3 507
16:58:48 5 984 0 17 NW 0 96 515
17:01:47 5 984 0 24 NW 0 95.6 512
17:04:47 5 984 0 7 W 0 95.4 505
17:07:46 5 984 0 6 S 0 95.7 509
17:10:45 5 984 0 12 W 0 95.8 511
17:13:45 5 984 0 17 NW 0 95.9 511
17:16:45 5 984 0 8 S 0 96.1 511
17:19:46 5 985 0 11 W 0 96.2 515
17:22:47 5 984 0 9 W 0 95.7 519
17:25:45 5 984 0 5 NW 0 95.6 524
17:28:47 5 985 0 8 SW 0 95.4 521
17:31:45 5 984 0 7 S 0 95.1 518
17:34:45 5 984 0 6 NW 0 94.7 519
17:37:46 5 984 0 6 SW 0 94.6 524
17:40:46 5 984 0 10 W 0 94.2 530
17:43:46 5 984 0 7 NW 0 94.3 530
17:46:45 5 984 0 10 W 0 94.5 538
17:49:45 5 985 0 7 NW 0 94.7 535
17:52:47 5 985 0 16 SW 0.2575 95.9 532
17:55:48 5 985 0 9 NW 0 96.5 527
17:58:45 5 986 0 8 SW 0 96.6 520
18:01:44 4 985 0 7 W 0 96.6 517
18:04:45 4 985 0 6 W 0 96.6 520
18:07:44 4 985 0 9 S 0 96.6 532
18:10:51 4 985 0 8 NW 0 96.6 535
18:13:47 4 986 0 4 W 0 96.6 536
18:16:48 4 986 0 5 NW 0 96.6 536
18:19:45 4 987 0 1 W 0 96.6 533
18:22:46 4 986 0 6 W 0 96.6 539
18:25:46 4 986 0 7 NW 0.2575 96.6 538
18:28:46 4 986 0 6 W 0 96.6 547
18:31:44 4 986 0 7 W 0 96.6 543
18:34:48 4 986 0 8 NW 0 96.6 542
18:37:45 4 986 0 12 W 0 96.6 541
18:40:48 4 986 0 13 NW 0 96.6 544
18:43:45 4 986 0 13 W 0 96.6 551
18:46:47 4 987 0 13 NW 0 96.6 541
18:49:46 4 986 0 8 0 96.6 546
18:52:46 4 987 0 8 N 0 96.6 544
18:55:45 4 986 0 10 W 0 96.6 556
18:58:45 4 987 0 7 SW 0 96.6 553
19:01:47 4 987 0 4 NW 0 96.6 550
19:04:46 4 987 0 6 W 0 96.6 554
19:07:46 4 987 0 4 NW 0 96.6 557
19:10:46 4 987 0 7 SW 0 96.6 571
19:13:44 4 987 0 4 W 0 96.6 567
19:16:48 4 987 0 2 NW 0 96.6 562
19:19:49 4 987 0 21 NW 0 96.6 556
19:22:45 4 987 0 5 W 0 96.6 565
19:25:44 4 987 0 6 W 0 96.6 565
19:28:48 4 987 0 8 NW 0 96.6 582
19:31:48 4 987 0 9 SW 0 96.6 585
19:34:46 4 987 0 5 W 0 96.6 588
19:37:47 4 987 0 5 SW 0 96.6 597
19:40:48 4 987 0 4 W 0 96.6 609
19:43:47 4 987 0 3 W 0 96.6 603
19:46:46 4 987 0 6 SW 0 96.6 598
19:49:47 4 987 0 4 W 0 96.6 582
19:52:45 4 987 0 5 SW 0 96.6 571
19:55:45 4 987 0 8 W 0 96.6 579
19:58:47 4 987 0 11 NW 0 96.6 600
20:01:48 4 987 0 4 NW 0 96.6 609
20:04:49 4 987 0 4 SW 0 96.6 606
20:07:47 4 987 0 10 NW 0 96.6 604
20:10:45 4 987 0 7 NW 0 96.6 615
20:13:49 4 987 0 11 NW 0 96.6 612
20:16:46 4 987 0 11 W 0 96.6 615
20:19:49 4 987 0 7 NW 0 96.6 612
20:22:50 4 987 0 6 W 0 96.6 615
20:25:48 4 987 0 8 SW 0 96.6 609
20:28:47 4 987 0 8 W 0 96.6 611
20:31:45 4 987 0 8 W 0 96.6 609
20:34:47 4 987 0 11 SW 0 96.6 608
20:37:46 4 987 0 6 SW 0 96.6 605
20:40:47 4 987 0 10 W 0 96.6 609
20:43:49 4 987 0 3 SW 0 96.6 609
20:46:46 4 987 0 5 W 0 96.6 608
20:49:50 4 987 0 11 NW 0 96.6 610
20:52:45 4 987 0 3 SW 0 96.6 621
20:55:45 4 987 0 6 W 0 96.6 524
20:58:46 4 987 0 6 W 0 96.6 527
21:01:46 4 987 0 9 W 0 96.6 524
21:04:45 4 987 0 4 W 0 96.6 527
21:07:45 4 987 0 9 NW 0 96.6 524
21:10:44 4 987 0 2 N 0 96.6 524
21:13:43 4 988 0 4 W 0 96.6 524
21:16:46 5 987 0 6 W 0 96.6 517
21:19:47 5 988 0 4 SW 0 96.6 522
21:22:48 5 987 0 8 SW 0 96.6 516
21:25:46 5 987 0 7 S 0 96.6 516
21:28:46 5 987 0 7 W 0 96.6 513
21:31:46 5 987 0 2 NW 0 96.6 519
21:34:46 5 987 0 3 S 0 96.6 524
21:37:52 5 987 0 12 W 0 96.6 529
21:40:48 5 987 0 8 SW 0 96.6 527
21:43:45 4 988 0 10 W 0 96.6 521
21:46:45 4 987 0 5 SW 0 96.6 512
21:49:47 4 987 0 3 NW 0 96.6 519
21:52:46 4 988 0 1 SW 0 96.6 527
21:55:45 4 987 0 3 W 0 96.6 521
21:58:45 4 987 0 3 SW 0 96.6 530
22:01:48 4 988 0 4 NW 0 96.6 528
22:04:47 4 988 0 4 W 0 96.6 530
22:07:46 4 987 0 4 W 0 96.6 534
22:10:48 4 987 0 7 W 0 96.6 533
22:13:47 4 988 0 4 S 0 96.6 534
22:16:46 4 987 0 2 SW 0 96.6 534
22:19:46 4 988 0 6 NW 0 96.6 543
22:22:48 4 988 0 2 SW 0 96.6 547
22:25:46 4 987 0 6 W 0 96.6 548
22:28:48 4 987 0 1 SW 0 96.6 551
22:31:47 4 987 0 1 SW 0 96.6 549
22:34:49 4 988 0 3 W 0 96.6 556
22:37:46 4 988 0 4 W 0 96.6 545
22:40:48 4 988 0 2 NW 0 96.6 547
22:43:47 4 988 0 4 SW 0 96.6 542
22:46:47 4 987 0 3 SW 0 96.6 539
22:49:47 4 987 0 3 SW 0 96.6 534
22:52:49 4 988 0 2 S 0 96.6 543
22:55:46 4 987 0 4 S 0 96.6 550
22:58:47 4 987 0 3 SW 0 96.6 548
23:01:47 4 988 0 3 SO 0 96.6 542
23:04:48 4 988 0 4 NW 0 96.6 551
23:07:49 4 987 0 2 W 0 96.6 556
23:10:47 4 987 0 5 W 0 96.6 550
23:13:45 4 987 0 0 SW 0 96.6 544
23:16:45 4 987 0 1 W 0 96.6 542
23:19:47 4 987 0 1 W 0 96.6 556
23:22:48 4 987 0 0 NW 0 96.6 574
23:25:49 4 988 0 1 O 0 96.6 580
23:28:47 4 987 0 0 SO 0 96.6 578
23:31:44 4 987 0 1 S 0 96.6 574
23:34:47 4 987 0 6 SW 0 96.6 573
23:37:46 4 987 0 0 SW 0 96.6 575
23:40:46 4 987 0 4 SO 0 96.6 571
23:43:47 4 987 0 0 SO 0 96.6 571
23:46:45 4 987 0 4 W 0 96.6 579
23:49:47 4 987 0 1 SW 0 96.6 577
23:52:46 4 988 0 0 W 0 96.6 574
23:55:47 4 987 0 2 SO 0 96.6 571
23:58:49 4 988 0 2 SO 0 96.6 578

Letzte Änderung : 04-Jan-2022
Copyright Jens Köhler, Wolfsburg, Obere Dorfstraße 10d